When you browse on this site, cookies collect data to enhance your experience and personalize the content and advertising you see.
Visit our Privacy Policy to learn more. By continuing to use the site, you agree to this use of cookies and data.
  • In France
  • List of Countries
  • For 7 days
  • Water Temperature
  • Satellite Maps
  • Weather Map
  • Weather Widgets
  • user-avatar
    Login

    Hourly Weather Herāt

    Today, 17 February, Sunday

    Time Temperature Precipitation Wind Pressure Humidity
    00:00 +10°C° 0.2 mm 3 mps 675 mmHg 59%
    01:00 +8°C° 0.2 mm 4 mps 675 mmHg 61%
    02:00 +9°C° 0.4 mm 3 mps 675 mmHg 63%
    03:00 +9°C° 0.4 mm 3 mps 675 mmHg 65%
    04:00 +8°C° 0.4 mm 2 mps 675 mmHg 67%
    05:00 +8°C° 0.2 mm 2 mps 675 mmHg 68%
    06:00 +8°C° 0.2 mm 3 mps 675 mmHg 69%
    07:00 +8°C° 0.2 mm 3 mps 676 mmHg 70%
    08:00 +9°C° 0 mm 3 mps 676 mmHg 63%
    09:00 +10°C° 0 mm 2 mps 676 mmHg 56%
    10:00 +12°C° 0 mm 2 mps 677 mmHg 49%
    11:00 +12°C° 0 mm 3 mps 677 mmHg 44%
    12:00 +13°C° 0 mm 3 mps 676 mmHg 38%
    13:00 +13°C° 0 mm 4 mps 676 mmHg 33%
    14:00 +13°C° 0 mm 4 mps 676 mmHg 32%
    15:00 +13°C° 0 mm 4 mps 676 mmHg 31%
    16:00 +13°C° 0 mm 4 mps 676 mmHg 31%
    17:00 +12°C° 0 mm 3 mps 676 mmHg 35%
    18:00 +12°C° 0 mm 2 mps 676 mmHg 40%
    19:00 +10°C° 0 mm 2 mps 676 mmHg 45%
    20:00 +10°C° 0 mm 2 mps 676 mmHg 45%
    21:00 +9°C° 0 mm 3 mps 676 mmHg 45%
    22:00 +8°C° 0 mm 3 mps 676 mmHg 45%
    23:00 +8°C° 0 mm 3 mps 675 mmHg 46%

    Tomorrow, 18 February, Monday

    Time Temperature Precipitation Wind Pressure Humidity
    00:00 +8°C° 0 mm 3 mps 675 mmHg 47%
    01:00 +7°C° 0 mm 2 mps 675 mmHg 48%
    02:00 +7°C° 0 mm 2 mps 675 mmHg 50%
    03:00 +5°C° 0 mm 3 mps 674 mmHg 51%
    04:00 +5°C° 0 mm 3 mps 674 mmHg 53%
    05:00 +5°C° 0 mm 3 mps 674 mmHg 54%
    06:00 +4°C° 0 mm 3 mps 675 mmHg 55%
    07:00 +4°C° 0 mm 3 mps 675 mmHg 56%
    08:00 +6°C° 0 mm 2 mps 676 mmHg 50%
    09:00 +9°C° 0 mm 1 mps 676 mmHg 45%
    10:00 +9°C° 0 mm 0 mps 677 mmHg 39%
    11:00 +10°C° 0 mm 1 mps 677 mmHg 39%
    12:00 +11°C° 0 mm 1 mps 676 mmHg 39%
    13:00 +11°C° 0 mm 1 mps 676 mmHg 39%
    14:00 +11°C° 0 mm 1 mps 676 mmHg 39%
    15:00 +11°C° 0 mm 1 mps 675 mmHg 39%
    16:00 +11°C° 0 mm 1 mps 675 mmHg 38%
    17:00 +11°C° 0 mm 1 mps 675 mmHg 41%
    18:00 +9°C° 0 mm 2 mps 675 mmHg 44%
    19:00 +9°C° 0 mm 2 mps 675 mmHg 46%
    20:00 +8°C° 0 mm 2 mps 675 mmHg 47%
    21:00 +8°C° 0 mm 3 mps 675 mmHg 47%
    22:00 +6°C° 0 mm 4 mps 675 mmHg 47%
    23:00 +6°C° 0 mm 4 mps 675 mmHg 48%

    Day after tomorrow, 19 February, Tuesday

    Time Temperature Precipitation Wind Pressure Humidity
    00:00 +6°C° 0 mm 4 mps 675 mmHg 49%
    01:00 +5°C° 0 mm 4 mps 674 mmHg 50%
    02:00 +5°C° 0 mm 4 mps 674 mmHg 50%
    03:00 +5°C° 0 mm 4 mps 674 mmHg 50%
    04:00 +5°C° 0 mm 4 mps 673 mmHg 50%
    05:00 +4°C° 0 mm 4 mps 673 mmHg 51%
    06:00 +4°C° 0 mm 4 mps 673 mmHg 52%
    07:00 +4°C° 0 mm 4 mps 673 mmHg 53%
    08:00 +7°C° 0 mm 3 mps 674 mmHg 47%
    09:00 +9°C° 0 mm 3 mps 674 mmHg 41%
    10:00 +10°C° 0 mm 3 mps 674 mmHg 35%
    11:00 +11°C° 0 mm 3 mps 674 mmHg 34%
    12:00 +12°C° 0 mm 3 mps 674 mmHg 32%
    13:00 +13°C° 0 mm 3 mps 674 mmHg 30%
    14:00 +12°C° 0.1 mm 3 mps 674 mmHg 33%
    15:00 +11°C° 0.1 mm 3 mps 674 mmHg 36%
    16:00 +12°C° 0.1 mm 2 mps 674 mmHg 39%
    17:00 +10°C° 0 mm 3 mps 675 mmHg 44%
    18:00 +9°C° 0 mm 3 mps 675 mmHg 49%
    19:00 +8°C° 0 mm 3 mps 676 mmHg 55%
    20:00 +8°C° 0 mm 3 mps 676 mmHg 55%
    21:00 +8°C° 0 mm 3 mps 677 mmHg 56%
    22:00 +7°C° 0 mm 3 mps 677 mmHg 56%
    23:00 +6°C° 0 mm 4 mps 677 mmHg 58%

    20 February, Wednesday

    Time Temperature Precipitation Wind Pressure Humidity
    00:00 +6°C° 0 mm 4 mps 677 mmHg 59%
    01:00 +5°C° 0 mm 4 mps 678 mmHg 60%
    02:00 +5°C° 0 mm 4 mps 678 mmHg 63%
    03:00 +4°C° 0 mm 4 mps 678 mmHg 67%
    04:00 +3°C° 0 mm 4 mps 678 mmHg 70%
    05:00 +3°C° 0 mm 4 mps 678 mmHg 70%
    06:00 +3°C° 0 mm 4 mps 679 mmHg 71%
    07:00 +3°C° 0 mm 4 mps 679 mmHg 72%
    08:00 +3°C° 0 mm 5 mps 680 mmHg 66%
    09:00 +4°C° 0 mm 6 mps 681 mmHg 61%
    10:00 +4°C° 0 mm 7 mps 682 mmHg 56%
    11:00 +5°C° 0 mm 7 mps 682 mmHg 55%
    12:00 +5°C° 0 mm 8 mps 682 mmHg 53%
    13:00 +5°C° 0 mm 9 mps 682 mmHg 52%
    14:00 +3°C° 0 mm 9 mps 682 mmHg 53%
    15:00 +3°C° 0 mm 9 mps 682 mmHg 53%
    16:00 +2°C° 0 mm 9 mps 682 mmHg 54%
    17:00 +1°C° 0 mm 8 mps 683 mmHg 57%
    18:00 0°C° 0 mm 7 mps 683 mmHg 59%
    19:00 -1°C° 0 mm 7 mps 683 mmHg 61%
    20:00 -1°C° 0 mm 6 mps 684 mmHg 61%
    21:00 -1°C° 0 mm 6 mps 684 mmHg 62%
    22:00 -1°C° 0 mm 6 mps 684 mmHg 62%
    23:00 -2°C° 0 mm 6 mps 684 mmHg 63%

    21 February, Thursday

    Time Temperature Precipitation Wind Pressure Humidity
    00:00 -1°C° 0 mm 5 mps 684 mmHg 65%
    01:00 -2°C° 0 mm 5 mps 684 mmHg 66%
    02:00 -2°C° 0 mm 4 mps 684 mmHg 66%
    03:00 -2°C° 0 mm 4 mps 684 mmHg 66%
    04:00 -2°C° 0 mm 3 mps 684 mmHg 66%
    05:00 -2°C° 0 mm 2 mps 684 mmHg 65%
    06:00 -2°C° 0 mm 2 mps 684 mmHg 64%
    07:00 -2°C° 0 mm 2 mps 685 mmHg 63%
    08:00 +1°C° 0 mm 1 mps 685 mmHg 57%
    09:00 +2°C° 0 mm 1 mps 685 mmHg 50%
    10:00 +4°C° 0 mm 1 mps 685 mmHg 43%
    11:00 +5°C° 0 mm 1 mps 684 mmHg 39%
    12:00 +5°C° 0 mm 2 mps 684 mmHg 35%
    13:00 +6°C° 0 mm 2 mps 683 mmHg 31%
    14:00 +6°C° 0 mm 2 mps 683 mmHg 31%
    15:00 +6°C° 0 mm 2 mps 683 mmHg 31%
    16:00 +7°C° 0 mm 2 mps 682 mmHg 31%
    17:00 +6°C° 0 mm 2 mps 683 mmHg 36%
    18:00 +6°C° 0 mm 1 mps 683 mmHg 41%
    19:00 +5°C° 0 mm 1 mps 683 mmHg 46%
    20:00 +5°C° 0 mm 1 mps 683 mmHg 47%
    21:00 +3°C° 0 mm 0 mps 683 mmHg 49%
    22:00 +3°C° 0 mm 0 mps 683 mmHg 51%
    23:00 +3°C° 0 mm 0 mps 682 mmHg 49%

    22 February, Friday

    Time Temperature Precipitation Wind Pressure Humidity
    00:00 +2°C° 0 mm 0 mps 682 mmHg 48%
    01:00 +2°C° 0 mm 0 mps 681 mmHg 46%
    02:00 +2°C° 0 mm 0 mps 681 mmHg 44%
    03:00 +3°C° 0 mm 1 mps 681 mmHg 42%
    04:00 +3°C° 0 mm 1 mps 681 mmHg 40%
    05:00 +3°C° 0 mm 1 mps 681 mmHg 39%
    06:00 +2°C° 0 mm 2 mps 681 mmHg 38%
    07:00 +3°C° 0 mm 2 mps 681 mmHg 36%
    08:00 +5°C° 0 mm 2 mps 682 mmHg 31%
    09:00 +7°C° 0 mm 2 mps 682 mmHg 26%
    10:00 +9°C° 0 mm 2 mps 682 mmHg 21%
    11:00 +10°C° 0 mm 3 mps 682 mmHg 21%
    12:00 +11°C° 0 mm 4 mps 681 mmHg 20%
    13:00 +12°C° 0 mm 5 mps 681 mmHg 19%
    14:00 +12°C° 0 mm 5 mps 680 mmHg 20%
    15:00 +12°C° 0 mm 5 mps 680 mmHg 21%
    16:00 +12°C° 0 mm 5 mps 680 mmHg 22%
    17:00 +11°C° 0 mm 4 mps 680 mmHg 26%
    18:00 +9°C° 0 mm 2 mps 680 mmHg 30%
    19:00 +9°C° 0 mm 1 mps 680 mmHg 35%
    20:00 +8°C° 0 mm 2 mps 680 mmHg 34%
    21:00 +7°C° 0 mm 2 mps 680 mmHg 33%
    22:00 +7°C° 0 mm 2 mps 681 mmHg 32%
    23:00 +7°C° 0 mm 3 mps 680 mmHg 31%
    Show more